Flag for Germany Weather past 2 weeks in Sindelfingen, Baden-Württemberg, Germany

Now
70 °F

Scattered clouds.


Feels Like: 70 °F
Forecast: 55 / 74 °F
Wind: 8 mph from South

Location: Stuttgart-Echterdingen

Current Time: May 4, 2015 at 5:10:58 PM

Latest Report: May 4, 2015 at 4:20 PM


Visibility: N/A

Pressure: 29.83 "Hg

Humidity: 50%

Dew point: 50 °F

Location of SindelfingenLocation

Historic Weather in Sindelfingen — Graph

°F

Sindelfingen temperature yesterday

Maximum temperature yesterday: 64 °F (at 4:50 PM)
Minimum temperature yesterday: 52 °F (at 2:20 AM)
Average temperature yesterday: 58 °F

Past Weeks' High & Low Weather Summary

 TemperatureHumidityPressure
High70 °F (Apr 21, 5:20 PM)100% (Apr 27, 9:50 PM)30.39 "Hg (Apr 27, 9:50 PM)
Low32 °F (Apr 23, 6:20 AM)23% (Apr 24, 2:50 PM)29.53 "Hg (Apr 27, 4:50 PM)
Average53 °F69%29.96 "Hg
* Reported Apr 19 3:20 PM — May 4 3:50 PM, Sindelfingen, Weather by CustomWeather, © 2015

Note: Actual official high and low records may vary slightly from our data, if they occured in-between our weather recording intervals... More about our weather records

Advertising

Sindelfingen weather history for previous 24 hours

 ConditionsComfort  
Time TempWeatherWind HumidityBarometerVisibility
3:50 PM
Mon, May 4
70 °FPartly sunny.7 mph57%29.83 "HgN/A
3:20 PM70 °FBroken clouds.7 mph64%29.86 "HgN/A
2:50 PM70 °FBroken clouds.9 mph64%29.86 "HgN/A
2:20 PM70 °FBroken clouds.6 mph60%29.86 "HgN/A
1:50 PM70 °FBroken clouds.6 mph64%29.86 "HgN/A
1:20 PM70 °FBroken clouds.8 mph60%29.86 "HgN/A
12:50 PM68 °FBroken clouds.6 mph64%29.86 "HgN/A
12:20 PM68 °FBroken clouds.8 mph69%29.86 "HgN/A
11:50 AM66 °FBroken clouds.8 mph78%29.86 "HgN/A
11:20 AM66 °FBroken clouds.7 mph83%29.86 "HgN/A
10:50 AM64 °FBroken clouds.3 mph83%29.86 "HgN/A
10:20 AM63 °FBroken clouds.2 mph88%29.86 "HgN/A
9:50 AM61 °FBroken clouds.2 mph88%29.86 "HgN/A
9:20 AM59 °FBroken clouds.1 mph94%29.86 "HgN/A
8:50 AM57 °FPartly sunny.2 mph100%29.89 "HgN/A
8:20 AM57 °FPartly sunny.2 mph94%29.89 "HgN/A
7:50 AM57 °FPartly sunny.No wind94%29.89 "HgN/A
7:20 AM57 °FPartly sunny.1 mph94%29.86 "HgN/A
6:50 AM55 °FPassing clouds.No wind94%29.86 "HgN/A
6:20 AM54 °FPartly cloudy.1 mph100%29.86 "HgN/A
5:50 AM55 °FPartly cloudy.3 mph100%29.86 "HgN/A
5:20 AM57 °FPassing clouds.3 mph94%29.86 "HgN/A
4:50 AM55 °FClear.2 mph94%29.86 "Hg10 mi
4:20 AM57 °FPassing clouds.3 mph94%29.86 "HgN/A
3:50 AM57 °FClear.2 mph94%29.86 "Hg10 mi
3:20 AM57 °FClear.2 mph100%29.86 "Hg10 mi
2:50 AM59 °FPartly cloudy.2 mph94%29.83 "HgN/A
2:20 AM59 °FLight rain. Passing clouds.3 mph100%29.83 "HgN/A
1:50 AM59 °FLight rain. Passing clouds.12 mph94%29.83 "HgN/A
1:20 AM61 °FPassing clouds.8 mph88%29.80 "HgN/A
12:50 AM61 °FPassing clouds.7 mph88%29.80 "HgN/A
12:20 AM61 °FLight rain. Passing clouds.5 mph94%29.80 "HgN/A
11:50 PM
Sun, May 3
59 °FClear.2 mph100%29.80 "Hg10 mi
11:20 PM61 °FSprinkles. Passing clouds.3 mph94%29.80 "HgN/A
10:50 PM61 °FSprinkles. Passing clouds.3 mph94%29.80 "HgN/A
10:20 PM61 °FSprinkles. Passing clouds.3 mph94%29.80 "HgN/A
9:50 PM61 °FPartly cloudy.5 mph94%29.77 "HgN/A
9:20 PM61 °FPartly sunny.5 mph94%29.77 "HgN/A
8:50 PM61 °FScattered showers. Broken clouds.5 mph94%29.77 "HgN/A
8:20 PM63 °FSprinkles. Partly sunny.7 mph94%29.74 "Hg5 mi
7:50 PM63 °FSprinkles. Broken clouds.5 mph88%29.74 "HgN/A
7:20 PM63 °FSprinkles. Partly sunny.3 mph88%29.74 "HgN/A
6:50 PM63 °FBroken clouds.2 mph94%29.71 "HgN/A
6:20 PM63 °FBroken clouds.3 mph94%29.71 "HgN/A
5:50 PM63 °FSprinkles. Partly sunny.8 mph88%29.74 "HgN/A
5:20 PM63 °FRain showers. Broken clouds.5 mph94%29.74 "Hg2 mi
Weather by CustomWeather, © 2015

See weather overviewHow to use our weather pages